Weather History for Stafford, VA

Change the Weather History Date:

Tuesday, January 14, 2014

  Actual Average (KNYG) Record (KNYG)
Temperature  
Mean Temperature 42 °F -  
Max Temperature 52 °F 39 °F 64 °F (2013)
Min Temperature 32 °F 25 °F 15 °F (1997)
Degree Days  
Heating Degree Days 23    
Moisture  
Dew Point 45 °F    
Average Humidity 95    
Maximum Humidity 100    
Minimum Humidity 59    
Precipitation  
Precipitation 0.14 in - - ()
Sea Level Pressure  
Sea Level Pressure 29.87 in    
Wind  
Wind Speed 5 mph (SW)    
Max Wind Speed 14 mph    
Max Gust Speed 21 mph    
Visibility 7 miles    
Events Fog , Rain    
Averages and records for this station are not official NWS values.
T = Trace of Precipitation, MM = Missing Value Source: NWS Daily Summary

Daily Weather History Graph

Daily Weather History Graph

Search for Another Location

Airport:

Trip Planner

Search our weather history database for the weather conditions in past years. The results will help you decide how hot, cold, wet, or windy it might be!

Date:

Astronomy

Jan. 14, 2014 Rise Set
Actual Time 7:25 AM EST 5:12 PM EST
Civil Twilight 6:56 AM EST 5:41 PM EST
Nautical Twilight 6:24 AM EST 6:13 PM EST
Astronomical Twilight 5:52 AM EST 6:45 PM EST
Moon 4:15 PM EST (1/14) 5:59 AM EST (1/14)
Length of Visible Light 10h 44m
Length of Day
9h 46m
Waxing Gibbous, 98% of the Moon is Illuminated
Jan 14
Waxing Gibbous
Jan 15
Full
Jan 24
Last Quarter
Jan 30
New
Feb 6
First Quarter

Hourly Weather History & Observations

Time (EST) Temp. Dew Point Humidity Pressure Visibility Wind Dir Wind Speed Gust Speed Precip Events Conditions
12:15 AM 52.7 °F 38.8 °F 59% 29.92 in 10.0 mi South 6.9 mph - N/A Rain Light Rain
12:35 AM 52.0 °F 40.5 °F 65% 29.92 in 10.0 mi SW 6.9 mph - N/A Rain Rain
12:55 AM 52.2 °F 41.9 °F 68% 29.92 in 10.0 mi SW 10.4 mph 20.7 mph N/A Rain Light Rain
1:15 AM 50.5 °F 42.8 °F 75% 29.92 in 10.0 mi SW 6.9 mph - N/A Rain Rain
1:35 AM 49.5 °F 43.7 °F 81% 29.92 in 10.0 mi SW 6.9 mph 16.1 mph N/A Rain Rain
1:55 AM 49.1 °F 43.7 °F 82% 29.92 in 10.0 mi SW 8.1 mph - N/A   Drizzle
2:15 AM 49.6 °F 43.9 °F 81% 29.91 in 10.0 mi SSW 13.8 mph 18.4 mph N/A   Light Drizzle
2:35 AM 50.0 °F 44.2 °F 81% 29.91 in 10.0 mi SW 10.4 mph 17.3 mph N/A   Light Drizzle
2:55 AM 50.0 °F 44.6 °F 82% 29.90 in 10.0 mi SSW 11.5 mph - N/A   Overcast
3:15 AM 50.0 °F 44.6 °F 82% 29.88 in 10.0 mi SW 5.8 mph - N/A   Overcast
3:35 AM 49.5 °F 45.0 °F 84% 29.86 in 10.0 mi SSW 9.2 mph - N/A   Overcast
3:55 AM 49.5 °F 45.1 °F 85% 29.84 in 10.0 mi SW 4.6 mph - N/A   Overcast
4:15 AM 49.3 °F 45.7 °F 87% 29.85 in 10.0 mi SSW 4.6 mph - N/A   Overcast
4:35 AM 49.3 °F 45.5 °F 87% 29.85 in 10.0 mi South 6.9 mph - N/A   Overcast
4:55 AM 49.3 °F 45.5 °F 87% 29.85 in 10.0 mi South 5.8 mph - N/A   Overcast
5:15 AM 49.5 °F 45.0 °F 84% 29.86 in 10.0 mi South 6.9 mph - N/A   Overcast
5:35 AM 49.8 °F 44.8 °F 83% 29.86 in 10.0 mi South 9.2 mph - N/A   Overcast
5:55 AM 49.6 °F 45.5 °F 86% 29.86 in 7.0 mi South 6.9 mph - N/A Rain Rain
6:15 AM 49.1 °F 49.1 °F 100% 29.85 in 10.0 mi SSW 5.8 mph - N/A   Overcast
6:35 AM 49.3 °F 46.6 °F 90% 29.84 in 10.0 mi SSW 4.6 mph - N/A Rain Light Rain
6:55 AM 49.1 °F 47.7 °F 95% 29.84 in 10.0 mi SSW 5.8 mph - N/A   Light Drizzle
7:15 AM 48.7 °F 48.7 °F 100% 29.84 in 10.0 mi South 6.9 mph - N/A Rain Light Rain
7:35 AM 48.4 °F 48.4 °F 100% 29.82 in 10.0 mi South 4.6 mph - N/A Rain Rain
7:55 AM 48.2 °F 48.2 °F 100% 29.81 in 10.0 mi Calm Calm - N/A   Overcast
8:15 AM 48.2 °F 48.2 °F 100% 29.82 in 10.0 mi Calm Calm - N/A   Overcast
8:35 AM 48.7 °F 48.7 °F 100% 29.82 in 10.0 mi Calm Calm - N/A   Overcast
8:55 AM 48.7 °F 48.7 °F 100% 29.80 in 10.0 mi Calm Calm - N/A   Overcast
9:15 AM 48.9 °F 48.9 °F 100% 29.82 in 10.0 mi Calm Calm - N/A   Overcast
9:35 AM 49.1 °F 49.1 °F 100% 29.82 in 10.0 mi SW 3.5 mph - N/A   Overcast
9:55 AM 48.7 °F 48.7 °F 100% 29.82 in 10.0 mi SW 3.5 mph - N/A Rain Rain
10:15 AM 48.7 °F 48.7 °F 100% 29.82 in 10.0 mi Calm Calm - N/A   Light Drizzle
10:35 AM 48.7 °F 48.7 °F 100% 29.81 in 10.0 mi Calm Calm - N/A Rain Rain
10:55 AM 48.7 °F 48.7 °F 100% 29.81 in 10.0 mi Calm Calm - N/A Rain Rain
11:15 AM 48.6 °F 48.6 °F 100% 29.82 in 7.0 mi Calm Calm - 0.01 in Rain Light Rain
11:35 AM 48.4 °F 48.4 °F 100% 29.80 in 5.0 mi Calm Calm - 0.03 in Rain Rain
11:55 AM 48.2 °F 48.2 °F 100% 29.80 in 5.0 mi Calm Calm - 0.05 in Rain Rain
12:15 PM 48.2 °F 48.2 °F 100% 29.80 in 5.0 mi West 3.5 mph - 0.01 in Rain Rain
12:35 PM 48.2 °F 48.2 °F 100% 29.80 in 5.0 mi West 4.6 mph - 0.03 in Rain Rain
12:55 PM 48.7 °F 48.7 °F 100% 29.80 in 7.0 mi WNW 6.9 mph - 0.04 in Rain Rain
1:15 PM 48.7 °F 48.7 °F 100% 29.81 in 10.0 mi WNW 6.9 mph - N/A Rain Rain
1:35 PM 48.7 °F 48.7 °F 100% 29.80 in 7.0 mi WNW 5.8 mph - 0.03 in Rain Rain
1:55 PM 48.7 °F 48.7 °F 100% 29.79 in 10.0 mi WNW 5.8 mph - 0.05 in Rain Rain
2:15 PM 49.1 °F 49.1 °F 100% 29.77 in 10.0 mi NNW 6.9 mph - N/A Rain Light Rain
2:35 PM 49.1 °F 49.1 °F 100% 29.79 in 10.0 mi Calm Calm - N/A Rain Light Rain
2:55 PM 48.7 °F 48.7 °F 100% 29.80 in 10.0 mi Calm Calm - N/A   Overcast
3:15 PM 48.7 °F 48.7 °F 100% 29.79 in 10.0 mi Calm Calm - N/A   Light Drizzle
3:35 PM 48.7 °F 48.7 °F 100% 29.78 in 10.0 mi Calm Calm - N/A   Overcast
3:55 PM 48.7 °F 48.7 °F 100% 29.81 in 10.0 mi Calm Calm - N/A   Overcast
4:15 PM 48.6 °F 48.6 °F 100% 29.84 in 10.0 mi Calm Calm - N/A   Mostly Cloudy
4:35 PM 48.7 °F 48.7 °F 100% 29.84 in 10.0 mi WNW 3.5 mph - N/A   Mostly Cloudy
4:55 PM 48.7 °F 48.7 °F 100% 29.86 in 10.0 mi Calm Calm - N/A   Overcast
5:15 PM 48.0 °F 48.0 °F 100% 29.88 in 10.0 mi Calm Calm - N/A   Mostly Cloudy
5:35 PM 47.3 °F 47.3 °F 100% 29.89 in 10.0 mi Calm Calm - N/A   Mostly Cloudy
5:55 PM 46.2 °F 46.2 °F 100% 29.90 in 10.0 mi Calm Calm - N/A   Mostly Cloudy
6:15 PM 44.4 °F 44.4 °F 100% 29.91 in 10.0 mi Calm Calm - N/A   Scattered Clouds
6:35 PM 43.5 °F 43.5 °F 100% 29.91 in 7.0 mi Calm Calm - N/A   Clear
6:55 PM 42.1 °F 42.1 °F 100% 29.92 in 1.8 mi Calm Calm - N/A   Mist
7:15 PM 40.8 °F 40.8 °F 100% 29.92 in 0.5 mi Calm Calm - N/A Fog Fog
7:35 PM 40.1 °F 40.1 °F 100% 29.91 in 0.2 mi Calm Calm - N/A Fog Fog
7:55 PM 38.8 °F 38.8 °F 100% 29.92 in 0.2 mi Calm Calm - N/A Fog Fog
8:15 PM 38.5 °F 38.5 °F 100% 29.93 in 0.2 mi Calm Calm - N/A Fog Fog
8:35 PM 37.2 °F 37.2 °F 100% 29.94 in 0.2 mi Calm Calm - N/A Fog Fog
8:55 PM 36.5 °F 36.5 °F 100% 29.95 in 0.2 mi Calm Calm - N/A Fog Fog
9:15 PM 35.8 °F 35.8 °F 100% 29.96 in 0.5 mi Calm Calm - N/A Fog Fog
9:35 PM 35.2 °F 35.2 °F 100% 29.95 in 0.2 mi Calm Calm - N/A Fog Fog
9:55 PM 35.1 °F 35.1 °F 100% 29.96 in 0.2 mi Calm Calm - N/A Fog Fog
10:15 PM 35.2 °F 35.2 °F 100% 29.95 in 0.5 mi Calm Calm - N/A Fog Fog
10:35 PM 32.9 °F 32.9 °F 100% 29.96 in 0.2 mi Calm Calm - N/A Fog Fog
10:55 PM 34.2 °F 34.2 °F 100% 29.97 in 0.2 mi Calm Calm - N/A Fog Fog
11:15 PM 33.6 °F 33.6 °F 100% 29.96 in 0.2 mi Calm Calm - N/A Fog Fog
11:35 PM 34.3 °F 34.3 °F 100% 29.96 in 0.2 mi Calm Calm - N/A Fog Fog
11:55 PM 32.2 °F 32.2 °F 100% 29.97 in 0.2 mi Calm Calm - N/A Fog Fog